www.pogodaiklimat.ru
ПОГОДА в Отеле
Время
и дата
11:55 03.06
12:55 03.06
13:55 03.06
14:55 03.06
15:55 03.06
16:55 03.06
17:55 03.06
18:55 03.06
19:55 03.06
20:55 03.06
21:55 03.06
22:55 03.06
23:55 03.06
00:55 04.06
01:55 04.06
02:55 04.06
03:55 04.06
04:55 04.06
05:55 04.06
06:55 04.06
07:55 04.06
08:55 04.06
09:55 04.06
10:55 04.06
11:55 04.06
12:55 04.06
13:55 04.06
14:55 04.06
15:55 04.06
16:55 04.06
17:55 04.06
18:55 04.06
19:55 04.06
20:55 04.06
21:55 04.06
22:55 04.06
23:55 04.06
00:55 05.06
01:55 05.06
02:55 05.06
03:55 05.06
04:55 05.06
05:55 05.06
06:55 05.06
07:55 05.06
08:55 05.06
09:55 05.06
10:55 05.06
Ветер
(напр.,м/с)
Видим. Явления Облачность Т
(С)
Тd
(С)
f
(%)
Тe
(С)
Тes
(С)
Комфортность P
(гПа)
Po
(гПа)
Тmin
(С)
Tmax
(С)
R
(мм)
R24
(мм)
S
(см)
Ю 2 16 км 10/8 240 m
[Ac]
+15.3 +14.8 97 +15 +16 1016.1 874.4
ЮВ 5 16 км 5/5 510 м +17.7 +14.4 81 +17 +23 1015.4 874.1
ЮВ 4 16 км 10/8 900 m
[Ac]
+18.2 +13.9 76 +18 +19 1015.4 874.1
штиль 0 16 км 2/2 1200 м +18.7 +13.1 70 +19 +36 опасность
простуды
1014.7 873.5
штиль 0 16 км 8/8 1500 m
[Ac]
+19.3 +13.9 71 +21 +24 комфорт 1015.1 873.8
штиль 0 16 км 5/0 4500 m
[Ac]
+19.2 +14.2 73 +20 +27 1014.8 873.8 +14.5 +19.5
В 3 16 км слабый дождь 10/5 900 m
[Ac Ns]
+18.8 +14.7 77 +20 +20 1014.8 873.8
В 4 16 км слабая морось 8/0 3600 m
[Ac]
+16.6 +14.6 88 +16 +16 1015.4 874.1
В 3 16 км слабый дождь 10/0 2700 m
[Ac As]
+15.6 +14.5 93 +15 +15 1016.1 874.7 0.5
штиль 0 16 км 10/0 2850 m
[Ac]
+14.9 +14.3 96 +15 +15 1016.8 875.0
ЮВ 2 16 км 8/0 3000 m
[Ac]
+14.6 +13.8 95 +14 +14 1017.1 875.3
штиль 0 16 км 10/0 2700 m
[Ac]
+14.1 +13.6 97 +14 +14 1017.1 875.3 +14.0 +19.6 0.5
СВ 2 8 км дымка 10/0 2700 m
[Ac]
+13.4 +13.1 98 +13 +13 1017.1 875.3
штиль 0 11 км 10/0 3000 m
[Ac]
+13.8 +13.5 98 +13 +13 1016.9 875.5
штиль 0 5 км дымка 10/0 3300 m
[Ac]
+13.4 +13.2 99 +13 +13 1016.5 875.3
СВ 2 600 м туман 10/10 30 м +12.7 +12.5 99 +12 +12 1016.9 875.5
СВ 3 600 м туман ?/? +12.6 +12.4 99 +11 +11 1017.2 875.8
штиль 0 400 м слабый дождь, туман ?/? +11.9 +11.7 99 +11 +11 1017.2 875.8 +11.7 +14.2 1.0
В 3 600 м слабый дождь, туман ?/? +13.3 +13.1 99 +12 +12 1017.6 876.1
В 3 5 км дымка 10/10 60 м +14.0 +13.8 99 +13 +13 1018.2 876.4
В 5 16 км 5/5 180 м +15.9 +15.7 99 +15 +16 1017.9 876.4 0.3
ЮВ 7 16 км 5/5 570 м +18.9 +15.4 80 +19 +21 1018.0 876.7
В 6
{9}
16 км 5/5 870 м +20.6 +15.1 71 +23 +26 комфорт 1017.7 876.7
В 7 16 км 8/8 900 м +20.2 +15.0 72 +22 +23 комфорт 1018.0 876.7 +11.9 +21.0 0.3
ЮВ 6 16 км 8/2 990 m
[Ac]
+19.8 +14.8 73 +22 +24 комфорт 1018.0 876.7
ЮВ 5 16 км 5/2 960 m
[Ac]
+21.0 +14.9 68 +24 +30 комфорт 1017.6 876.4
ЮВ 10
{13}
16 км 5/2 1230 m
[Ac]
+21.8 +13.9 61 +25 +25 комфорт 1016.6 875.8
ЮВ 8
{11}
16 км 5/0 3000 m
[Ac]
+21.4 +13.3 60 +24 +26 комфорт 1016.9 875.8
ЮВ 3 16 км 5/0 3300 m
[Ac]
+19.1 +14.6 75 +21 +27 комфорт 1017.2 875.8
Ю 4 16 км 5/0 3900 m
[Ac]
+20.1 +14.7 71 +22 +26 комфорт 1017.2 875.8 +17.7 +22.9
Ю 4 16 км ясно +19.9 +14.5 71 +22 +25 комфорт 1016.6 875.5
ЮЗ 3 16 км ясно +17.9 +15.3 85 +18 +19 1017.2 875.8
ЮЗ 3 16 км ясно +15.6 +14.5 93 +15 +15 1018.3 876.7
ЮЗ 2 16 км ясно +14.8 +13.3 91 +14 +14 1018.7 877.3
ЮЗ 4 16 км ясно +13.6 +12.6 94 +12 +12 1018.7 877.3
СЗ 2 16 км ясно +12.2 +11.3 94 +11 +11 1019.0 877.3 +12.2 +20.4
З 3 16 км ясно +11.9 +11.4 97 +10 +10 1019.0 877.3
З 3 16 км ясно +11.5 +10.9 96 +10 +10 1018.6 877.0
З 4 16 км ясно +10.6 +10.0 96 +8 +8 1018.6 877.0
З 3 16 км ясно +10.2 +9.7 97 +8 +8 1018.6 877.0
штиль 0 16 км 10/0 3900 m
[Ac]
+10.6 +10.0 96 +10 +10 1018.9 877.0
В 3 16 км ясно +10.9 +10.3 96 +9 +9 1019.3 877.6 +9.7 +13.0 0.3
штиль 0 16 км ясно +12.9 +12.3 96 +12 +13 1019.3 877.6
ЮВ 3 16 км ясно +16.5 +13.8 84 +16 +18 1019.0 877.6
ЮВ 4 16 км ясно +18.7 +14.0 74 +19 +23 1019.0 877.6
Ю 4 16 км ясно +20.3 +13.5 65 +23 +29 комфорт 1018.7 877.3
Ю 5 16 км ясно +21.3 +13.7 62 +24 +31 комфорт 1019.0 877.6
Ю 5 16 км 2/2 1320 м +22.1 +12.6 55 +25 +32 комфорт 1018.7 877.3 +11.0 +22.3
Местоположение метеостанции Hotel: широта 41.3167 долгота -102.8333 высота над уровнем моря 1265 м.
В архиве по умолчанию представлена погода в Отеле за последние 1-2 суток. Обновление информации о фактической погоде в базе происходит ежечасно! Архивные данные за месяц целиком и за предыдущие месяцы Вы можете получить, выбрав интересующий диапазон дат из раскрывающегося списка и нажав кнопку "Ввод!".
Внимание! Архив погоды МЕТАР в базе сайта по станциям, не включенным в климатический монитор, хранится не более 60 дней. Нет смысла пытаться выбрать более раннюю дату.
*Определитесь, кто Вы:
Внимание! Время в таблицах - местное (без учета летнего времени). Для получения всемирного времени необходимо вычесть поправку, которая равна -7 ч.
Смотрите также архив погоды в соседних городах и на ближайших метеорологических станциях:
Партнеры нашего сайта:      
Пояснения к столбцам:
  • Ветер - указаны скорость ветра в м/с - средняя за 10 мин, порывы в срок и между сроками (в фигурных скобках) и направление, откуда дует ветер: С - северный,
  • СВ - северо-восточный, В - восточный, ЮВ - юго-восточный, Ю - южный, ЮЗ - юго-западный, З - западный, СЗ - северо-западный.
  • Видимость - горизонтальная дальность видимости в метрах или километрах. При видимости от 1 до 10 км при отсутствии осадков обычно наблюдается дымка, при ухудшении видимости до 1 км и менее - туман. В сухую погоду видимость может ухудшаться дымом, пылью или мглою.
  • Явления - указаны атмосферные явления, наблюдавшиеся в срок или в последний час перед сроком; фигурными скобками обозначены явления, наблюдавшиеся между сроками (за 1-3 часа до срока); квадратными скобками обозначены град или гололедные отложения с указанием их диаметра в мм.
  • Облачность - указаны через наклонную черту общая и нижняя облачность в баллах и высота нижней границы облаков в метрах; квадратными скобками обозначены формы облаков: Ci - перистые, Cs - перисто-слоистые, Cc - перисто-кучевые, Ac - высококучевые, As - высокослоистые, Sc - слоисто-кучевые, Ns - слоисто-дождевые, Cu - кучевые, Cb - кучево-дождевые. Подробнее классификацию облаков см. в Атласе облаков (PDF).
  • T - Температура воздуха - температура, измеренная на высоте 2 м над землей.
  • Td - Температура точки росы - температура, при понижении до которой содержащийся в воздухе водяной пар достигнет насыщения.
  • f - Относительная влажность воздуха - влажноcть воздуха, измеренная на высоте 2 м над землей.
  • Te - Эффективная температура - температура, которую ощущает одетый по сезону человек в тени. Характеристика душности погоды. При расчете учитывается влияние влажности воздуха и скорости ветра на теплоощущения человека.
  • Tes - Эффективная температура на солнце - температура, которую ощущает человек, с поправкой на солнечный нагрев. Характеристика знойности погоды. Зависит от высоты солнца над горизонтом, облачности и скорости ветра. Ночью, в пасмурную погоду, а также при ветре 12 м/с и более поправка равна нулю.
  • P - Атмосферное давление - приведенное к уровню моря атмосферное давление.
  • Po - Атмосферное давление - измеренное на уровне метеостанции атмосферное давление.
  • Tmin - Минимальная температура - минимум температуры воздуха на высоте 2 м над землей.
  • Tmax - Максимальная температура - максимум температуры воздуха на высоте 2 м над землей.
  • R - Количество осадков - Количество выпавших осадков за период времени, мм. При наведении курсора мыши на число - период времени, за который выпало указанное количество осадков.
  • R24 - Количество осадков - Количество выпавших осадков за 24 часа, мм.
  • S - Снежный покров - Высота снежного покрова, см. При наведении курсора мыши на число - состояние снежного покрова и степень покрытия местности в баллах.